Pagina principale
METAR-TAF:

METAR-TAF

Aeroporti :

Meiringen, Svizzera

latitudine: 46-44-25N, longitudine: 8-06-36E, altezza: 577 m

Osservazione

Il bollettino è stato emesso 22 minuti fa, alle 22:50 UTC
Vento 2 kt da direzioni variabili
Temperature 4°C
Umidità 93%
Pressione 1022 hPa
Visibilità 10 km o più

METAR: LSMM 122250Z AUTO VRB02KT 9999NDV NCD 04/03 Q1022 RMK

Ora: 00:12 (23:12 UTC)


TAF: mancante

Osservazioni e previsioni meteorologiche di più di 4000 aeroporti (messaggi METAR e TAF).

Le stazioni disponibili sono rappresentate dai dischi gialli e rossi sulla carta.

Puntare il mouse per vedere il nome della stazione.

Clicca sopra per visualizzare le osservazioni e previsioni meteorologiche.

Per cambiare la mappa : fare clic sui pulsanti verdi con una croce nera per ingrandire, il pulsante verde con un trattino per diminuire, o sulla freccia verde per le mappe adiacenti.


METAR-TAF: